This is the latest recevied weather packets stored in our database for station/object AK4NG. If no packets are shown the sender has not sent any weather packets the latest 10 day(s).
| Time | Temp. | Humidity | Pressure | Rain* | Wind** | Luminosity | Snow |
|---|---|---|---|---|---|---|---|
| 1777397831 | 21.67° C | 81% | 1022.2 hPa | 0 mm | - | 251 W/m² | - |
| 1777397526 | 21.67° C | 83% | 1022.2 hPa | 0 mm | - | 425 W/m² | - |
| 1777397223 | 21.11° C | 86% | 1022.4 hPa | 0 mm | - | 228 W/m² | - |
| 1777396920 | 21.67° C | 84% | 1022.5 hPa | 0 mm | - | 241 W/m² | - |
| 1777396616 | 21.11° C | 85% | 1022.6 hPa | 0 mm | - | 360 W/m² | - |
| 1777396313 | 20.56° C | 87% | 1022.5 hPa | 0 mm | - | 345 W/m² | - |
| 1777396010 | 20.56° C | 87% | 1022.7 hPa | 0 mm | - | 244 W/m² | - |
| 1777395710 | 20.56° C | 84% | 1022.5 hPa | 0 mm | - | 49 W/m² | - |
| 1777395406 | 21.11° C | 86% | 1022.5 hPa | 0 mm | - | 81 W/m² | - |
| 1777395104 | 21.11° C | 84% | 1022.7 hPa | 0 mm | - | 113 W/m² | - |
| 1777394800 | 21.67° C | 83% | 1022.9 hPa | 0 mm | - | 131 W/m² | - |
| 1777394497 | 21.67° C | 81% | 1023 hPa | 0 mm | - | 73 W/m² | - |
| 1777394193 | 22.22° C | 79% | 1022.7 hPa | 0 mm | - | 104 W/m² | - |
| 1777393889 | 22.22° C | 80% | 1022.9 hPa | 0 mm | - | 190 W/m² | - |
| 1777393588 | 22.22° C | 81% | 1022.9 hPa | 0 mm | - | 215 W/m² | - |
| 1777393284 | 22.22° C | 80% | 1022.7 hPa | 0 mm | - | 152 W/m² | - |
| 1777392981 | 22.22° C | 82% | 1022.8 hPa | 0 mm | - | 105 W/m² | - |
| 1777392676 | 22.22° C | 82% | 1022.9 hPa | 0 mm | - | 62 W/m² | - |
| 1777392373 | 22.22° C | 82% | 1022.9 hPa | 0 mm | - | 54 W/m² | - |
| 1777392068 | 22.78° C | 81% | 1022.8 hPa | 0 mm | - | 43 W/m² | - |
| 1777391762 | 22.78° C | 80% | 1022.6 hPa | 0 mm | - | 68 W/m² | - |
| 1777391459 | 22.78° C | 79% | 1022.2 hPa | 0 mm | - | 132 W/m² | - |
| 1777391156 | 22.78° C | 78% | 1022.1 hPa | 0 mm | - | 227 W/m² | - |
| 1777390851 | 22.78° C | 79% | 1021.8 hPa | 0 mm | - | 244 W/m² | - |
| 1777390549 | 22.78° C | 79% | 1022 hPa | 0 mm | - | 220 W/m² | - |
* Rain latest hour (hover to see other rain measurements)
** Current wind speed in m/s (hover to see current wind gust speed)